TimeCST,TemperatureF,Dew PointF,Humidity,Sea Level PressureIn,VisibilityMPH,Wind Direction,Wind SpeedMPH,Gust SpeedMPH,PrecipitationIn,Events,Conditions,WindDirDegrees,DateUTC
12:15 AM,33.8,17.6,52,30.36,10.0,NW,4.6,-,N/A,,Clear,310,2013-03-06 06:15:00
12:55 AM,32.0,17.6,55,30.37,10.0,Calm,Calm,-,N/A,,Clear,0,2013-03-06 06:55:00
1:15 AM,33.8,15.8,48,30.36,10.0,NNW,3.5,-,N/A,,Clear,340,2013-03-06 07:15:00
1:35 AM,32.0,15.8,51,30.36,10.0,WNW,3.5,-,N/A,,Clear,290,2013-03-06 07:35:00
1:55 AM,32.0,17.6,55,30.37,10.0,Calm,Calm,-,N/A,,Clear,0,2013-03-06 07:55:00
2:15 AM,32.0,17.6,55,30.36,10.0,Calm,Calm,-,N/A,,Clear,0,2013-03-06 08:15:00
2:35 AM,32.0,15.8,51,30.36,10.0,Calm,Calm,-,N/A,,Clear,0,2013-03-06 08:35:00
2:55 AM,30.2,17.6,60,30.35,10.0,Calm,Calm,-,N/A,,Clear,0,2013-03-06 08:55:00
3:15 AM,32.0,17.6,55,30.35,10.0,Calm,Calm,-,N/A,,Clear,0,2013-03-06 09:15:00
3:35 AM,30.2,17.6,60,30.35,10.0,SSW,3.5,-,N/A,,Clear,200,2013-03-06 09:35:00
3:55 AM,30.2,17.6,60,30.34,10.0,Calm,Calm,-,N/A,,Clear,0,2013-03-06 09:55:00
4:15 AM,30.2,17.6,60,30.34,10.0,Calm,Calm,-,N/A,,Clear,0,2013-03-06 10:15:00
4:35 AM,28.4,15.8,59,30.35,10.0,North,3.5,-,N/A,,Clear,350,2013-03-06 10:35:00
4:55 AM,26.6,17.6,69,30.36,10.0,Calm,Calm,-,N/A,,Clear,0,2013-03-06 10:55:00
5:55 AM,28.4,15.8,59,30.38,10.0,Calm,Calm,-,N/A,,Clear,0,2013-03-06 11:55:00
6:15 AM,28.4,14.0,55,30.38,10.0,Calm,Calm,-,N/A,,Clear,0,2013-03-06 12:15:00
6:35 AM,26.6,14.0,59,30.39,10.0,Calm,Calm,-,N/A,,Clear,0,2013-03-06 12:35:00
6:55 AM,26.6,17.6,69,30.40,10.0,NNW,3.5,-,N/A,,Clear,340,2013-03-06 12:55:00
7:15 AM,26.6,17.6,69,30.41,10.0,NNW,3.5,-,N/A,,Clear,340,2013-03-06 13:15:00
7:35 AM,30.2,17.6,60,30.40,10.0,Calm,Calm,-,N/A,,Clear,0,2013-03-06 13:35:00
7:55 AM,32.0,19.4,60,30.40,10.0,Calm,Calm,-,N/A,,Clear,0,2013-03-06 13:55:00
8:15 AM,32.0,19.4,60,30.41,10.0,NNW,3.5,-,N/A,,Clear,330,2013-03-06 14:15:00
8:35 AM,33.8,17.6,52,30.41,10.0,Calm,Calm,-,N/A,,Clear,0,2013-03-06 14:35:00
8:55 AM,37.4,19.4,48,30.41,10.0,Calm,Calm,-,N/A,,Clear,0,2013-03-06 14:55:00
9:15 AM,42.8,15.8,34,30.42,10.0,ENE,8.1,-,N/A,,Clear,70,2013-03-06 15:15:00
9:35 AM,46.4,14.0,27,30.42,10.0,ENE,9.2,-,N/A,,Clear,60,2013-03-06 15:35:00
9:55 AM,48.2,14.0,25,30.42,10.0,ENE,8.1,-,N/A,,Clear,70,2013-03-06 15:55:00
10:15 AM,50.0,14.0,24,30.42,10.0,East,9.2,-,N/A,,Clear,90,2013-03-06 16:15:00
10:35 AM,50.0,10.4,20,30.41,10.0,ENE,6.9,-,N/A,,Clear,70,2013-03-06 16:35:00
10:55 AM,51.8,10.4,19,30.41,10.0,ESE,3.5,-,N/A,,Clear,120,2013-03-06 16:55:00
11:15 AM,53.6,8.6,16,30.40,10.0,ESE,8.1,-,N/A,,Clear,110,2013-03-06 17:15:00
11:35 AM,55.4,6.8,14,30.39,10.0,ESE,8.1,-,N/A,,Clear,110,2013-03-06 17:35:00
11:55 AM,59.0,3.2,11,30.38,10.0,East,5.8,-,N/A,,Clear,80,2013-03-06 17:55:00
12:15 PM,59.0,3.2,11,30.37,10.0,East,6.9,-,N/A,,Clear,100,2013-03-06 18:15:00
12:35 PM,59.0,-0.4,9,30.35,10.0,ESE,10.4,-,N/A,,Clear,110,2013-03-06 18:35:00
12:55 PM,60.8,-4.0,7,30.34,10.0,SE,10.4,-,N/A,,Clear,130,2013-03-06 18:55:00
1:15 PM,60.8,3.2,10,30.32,10.0,East,10.4,-,N/A,,Clear,100,2013-03-06 19:15:00
1:35 PM,60.8,1.4,9,30.29,10.0,East,8.1,-,N/A,,Clear,80,2013-03-06 19:35:00
1:55 PM,60.8,-0.4,8,30.28,10.0,East,6.9,-,N/A,,Clear,100,2013-03-06 19:55:00
2:15 PM,60.8,-2.2,8,30.28,10.0,ESE,6.9,-,N/A,,Clear,110,2013-03-06 20:15:00
2:35 PM,60.8,-2.2,8,30.27,10.0,SE,10.4,-,N/A,,Clear,130,2013-03-06 20:35:00
2:55 PM,60.8,-0.4,8,30.26,10.0,South,9.2,-,N/A,,Clear,180,2013-03-06 20:55:00
3:15 PM,60.8,-0.4,8,30.26,10.0,South,8.1,-,N/A,,Clear,180,2013-03-06 21:15:00
3:35 PM,60.8,-0.4,8,30.25,10.0,South,9.2,-,N/A,,Clear,180,2013-03-06 21:35:00
3:55 PM,62.6,1.4,9,30.24,10.0,South,10.4,-,N/A,,Clear,170,2013-03-06 21:55:00
4:15 PM,60.8,3.2,10,30.23,10.0,South,6.9,-,N/A,,Clear,170,2013-03-06 22:15:00
4:35 PM,60.8,5.0,11,30.23,10.0,SSE,9.2,-,N/A,,Clear,160,2013-03-06 22:35:00
4:55 PM,60.8,5.0,11,30.22,10.0,South,11.5,-,N/A,,Clear,170,2013-03-06 22:55:00
5:15 PM,59.0,5.0,12,30.24,10.0,South,9.2,-,N/A,,Clear,170,2013-03-06 23:15:00
5:35 PM,55.4,8.6,15,30.24,10.0,South,6.9,-,N/A,,Clear,170,2013-03-06 23:35:00
5:55 PM,55.4,8.6,15,30.24,10.0,South,8.1,-,N/A,,Clear,170,2013-03-06 23:55:00
6:15 PM,55.4,10.4,17,30.23,10.0,SSE,6.9,-,N/A,,Clear,150,2013-03-07 00:15:00
6:35 PM,55.4,12.2,18,30.22,10.0,SE,6.9,-,N/A,,Clear,140,2013-03-07 00:35:00
6:55 PM,55.4,12.2,18,30.20,10.0,ESE,6.9,-,N/A,,Clear,120,2013-03-07 00:55:00
7:15 PM,53.6,12.2,19,30.22,10.0,SSE,4.6,-,N/A,,Clear,150,2013-03-07 01:15:00
7:35 PM,51.8,14.0,22,30.22,10.0,SSE,8.1,-,N/A,,Clear,150,2013-03-07 01:35:00
7:55 PM,50.0,14.0,24,30.22,10.0,SSE,6.9,-,N/A,,Clear,150,2013-03-07 01:55:00
8:15 PM,50.0,15.8,26,30.22,10.0,SSE,6.9,-,N/A,,Clear,160,2013-03-07 02:15:00
8:35 PM,48.2,14.0,25,30.24,10.0,South,5.8,-,N/A,,Clear,170,2013-03-07 02:35:00
8:55 PM,46.4,15.8,29,30.23,10.0,SE,5.8,-,N/A,,Clear,140,2013-03-07 02:55:00
9:15 PM,46.4,14.0,27,30.24,10.0,SSE,3.5,-,N/A,,Clear,150,2013-03-07 03:15:00
9:35 PM,44.6,14.0,29,30.24,10.0,SSE,3.5,-,N/A,,Clear,160,2013-03-07 03:35:00
9:55 PM,46.4,14.0,27,30.23,10.0,ESE,3.5,-,N/A,,Clear,120,2013-03-07 03:55:00
10:15 PM,44.6,14.0,29,30.23,10.0,Calm,Calm,-,N/A,,Clear,0,2013-03-07 04:15:00
10:35 PM,41.0,17.6,39,30.23,10.0,Calm,Calm,-,N/A,,Clear,0,2013-03-07 04:35:00
10:55 PM,42.8,19.4,39,30.23,10.0,Calm,Calm,-,N/A,,Clear,0,2013-03-07 04:55:00
11:15 PM,42.8,19.4,39,30.22,10.0,Calm,Calm,-,N/A,,Clear,0,2013-03-07 05:15:00
11:35 PM,42.8,17.6,36,30.20,10.0,Calm,Calm,-,N/A,,Clear,0,2013-03-07 05:35:00